Soldotna, AK

4:09 AM AKST on December 15, 2019 (GMT -0900)
Soldotna

Weather History for PASX - October, 2019

Change the Weather History Date:

Friday, October 18, 2019

  Actual Average Record
Temperature  
Mean Temperature 38 °F -  
Max Temperature 46 °F 41 °F 54 °F (2018)
Min Temperature 30 °F 25 °F -2 °F (1996)
Degree Days  
Heating Degree Days 27    
Moisture  
Dew Point 34 °F    
Average Humidity 90    
Maximum Humidity 100    
Minimum Humidity 58    
Precipitation  
Precipitation 0.00 in - - ()
Sea Level Pressure  
Sea Level Pressure 29.23 in    
Wind  
Wind Speed 2 mph (ESE)    
Max Wind Speed 7 mph    
Max Gust Speed -    
Visibility 8 miles    
Events Fog    
Averages and records for this station are not official NWS values.
T = Trace of Precipitation, MM = Missing Value Source: NWS Daily Summary

Daily Weather History Graph

Daily Weather History Graph

Search for Another Location

Airport or City:

Astronomy

Oct. 18, 2019 Rise Set
Actual Time 8:52 AM AKDT 6:45 PM AKDT
Civil Twilight 8:08 AM AKDT 7:28 PM AKDT
Nautical Twilight 7:19 AM AKDT 8:17 PM AKDT
Astronomical Twilight 6:30 AM AKDT 9:06 PM AKDT
Moon 8:58 PM AKDT (10/18) 2:45 PM AKDT (10/18)
Length of Visible Light 11h 19m
Length of Day
9h 52m
Waning Gibbous, 77% of the Moon is Illuminated
Oct 18
Waning Gibbous
Oct 21
Last Quarter
Oct 27
New
Nov 4
First Quarter
Nov 12
Full

Hourly Weather History & Observations

Time (AKDT) Temp. Windchill Dew Point Humidity Pressure Visibility Wind Dir Wind Speed Gust Speed Precip Events Conditions
12:56 AM 32.0 °F 28.7 °F 32.0 °F 100% 29.10 in 10.0 mi East 3.5 mph - N/A   Clear
1:56 AM 33.1 °F 30.0 °F 32.0 °F 96% 29.10 in 10.0 mi East 3.5 mph - N/A   Clear
2:56 AM 33.1 °F 30.0 °F 32.0 °F 96% 29.11 in 10.0 mi East 3.5 mph - N/A   Clear
3:56 AM 33.1 °F - 32.0 °F 96% 29.11 in 10.0 mi Calm Calm - 0.00 in   Clear
4:56 AM 32.0 °F - 30.9 °F 96% 29.12 in 10.0 mi Calm Calm - N/A   Clear
5:56 AM 32.0 °F - 30.9 °F 96% 29.13 in 10.0 mi Calm Calm - N/A   Scattered Clouds
6:56 AM 33.1 °F - 32.0 °F 96% 29.14 in 10.0 mi Calm Calm - 0.00 in   Clear
8:56 AM 30.9 °F - 30.0 °F 96% 29.17 in 10.0 mi Calm Calm - N/A   Clear
9:52 AM 32.0 °F - 30.2 °F 93% 29.15 in 10.0 mi Calm Calm - N/A   Scattered Clouds
9:56 AM 32.0 °F 28.7 °F 30.9 °F 96% 29.19 in 10.0 mi East 3.5 mph - N/A   Mostly Cloudy
10:34 AM 33.8 °F - 33.8 °F 100% 29.17 in 5.0 mi Calm Calm - N/A   Overcast
10:41 AM 35.6 °F - 33.8 °F 93% 29.17 in 1.8 mi Calm Calm - N/A   Overcast
10:45 AM 35.6 °F - 33.8 °F 93% 29.17 in 0.8 mi Calm Calm - N/A   Overcast
10:56 AM 36.0 °F - 35.1 °F 97% 29.21 in 0.5 mi Calm Calm - N/A Fog Fog
11:07 AM 35.6 °F - 35.6 °F 100% 29.18 in 1.0 mi Calm Calm - N/A   Overcast
11:31 AM 37.4 °F - 37.4 °F 100% 29.19 in 2.0 mi Calm Calm - N/A   Overcast
11:44 AM 37.4 °F - 37.4 °F 100% 29.19 in 10.0 mi Calm Calm - N/A   Overcast
11:56 AM 39.0 °F - 39.0 °F 100% 29.23 in 10.0 mi Calm Calm - N/A   Mostly Cloudy
12:19 PM 37.4 °F - 35.6 °F 93% 29.20 in 10.0 mi Calm Calm - N/A   Partly Cloudy
12:56 PM 41.0 °F 39.0 °F 34.0 °F 76% 29.25 in 10.0 mi NNE 3.5 mph - N/A   Partly Cloudy
1:56 PM 43.0 °F - 34.0 °F 71% 29.27 in 10.0 mi Calm Calm - N/A   Clear
2:56 PM 45.0 °F 42.6 °F 35.1 °F 68% 29.28 in 10.0 mi Variable 4.6 mph - N/A   Partly Cloudy
3:56 PM 46.0 °F - 32.0 °F 58% 29.30 in 10.0 mi Calm Calm - N/A   Partly Cloudy
4:56 PM 46.0 °F 42.5 °F 33.1 °F 61% 29.32 in 10.0 mi West 6.9 mph - N/A   Scattered Clouds
5:56 PM 42.1 °F 37.7 °F 36.0 °F 79% 29.34 in 10.0 mi SSW 6.9 mph - N/A   Overcast
6:56 PM 39.9 °F 37.8 °F 36.0 °F 86% 29.36 in 10.0 mi SSW 3.5 mph - N/A   Mostly Cloudy
7:56 PM 39.9 °F 37.8 °F 36.0 °F 86% 29.38 in 10.0 mi South 3.5 mph - N/A   Overcast
8:56 PM 37.9 °F - 35.1 °F 89% 29.41 in 10.0 mi Calm Calm - N/A   Scattered Clouds
9:56 PM 37.0 °F - 34.0 °F 89% 29.42 in 10.0 mi Calm Calm - N/A   Overcast
10:56 PM 34.0 °F - 32.0 °F 92% 29.44 in 10.0 mi Calm Calm - N/A   Mostly Cloudy
11:56 PM 34.0 °F 31.0 °F 32.0 °F 92% 29.45 in 10.0 mi East 3.5 mph - N/A   Overcast